Simultaneous Nadir Overpasses (SNOs) Predictions

Prediction of SNOs between GOES-15 and NOAA-20 Satellite Orbit:

Table of predicted SNOs for the next 14.0 days since TLE Epoch: 9/30/2023
Index Date Time (GOES-15) GOES-15 Lat,Lon NOAA-20 Lat,Lon Distance(km) Time Diff (sec)
1 09/30/2023 06:49:26 -0.31, 97.80 -0.10, 98.65 97.86 80
2 10/01/2023 19:13:57 0.29, 96.20 0.95, 93.31 329.37 80
3 10/02/2023 18:52:35 0.31, 95.15 -0.26, 97.80 302.11 80
4 10/04/2023 07:17:16 -0.29, 93.49 -0.52, 92.42 122.04 80
5 10/06/2023 19:17:45 0.28, 90.82 0.15, 91.57 84.50 80
6 10/08/2023 07:42:26 -0.26, 89.17 -0.92, 86.18 340.15 80
7 10/09/2023 07:21:04 -0.27, 88.09 0.30, 90.67 293.45 80
8 10/10/2023 19:45:35 0.25, 86.47 0.53, 85.33 130.38 80
9 10/13/2023 07:46:14 -0.25, 83.74 -0.06, 84.43 79.07 80
